Regional Weather Roundup
Issued by NWS

Home | Current Version | Previous Version | Graphics & Text | Print | Product List | Glossary Off
Versions: 1 2 3 4 5 6 7 8 9 10 11 12 13 14 15 16 17 18 19 20 21 22 23 24 25 26 27 28 29 30 31 32 33 34 35 36 37 38 39 40 41 42 43 44 45 46 47 48 49 50

000
ASUS43 KLSX 040159
RWRMO

WEATHER SUMMARY FOR MISSOURI
NATIONAL WEATHER SERVICE SPRINGFIELD MO
900 PM CDT FRI JUL 03 2015

NOTE: "FAIR" INDICATES FEW OR NO CLOUDS BELOW 12,000 FEET WITH NO
       SIGNIFICANT WEATHER AND/OR OBSTRUCTIONS TO VISIBILITY.
       CURRENT SKY AND/OR WEATHER CONDITIONS ARE NOT AVAILABLE FOR
       CHILLICOTHE AND FARMINGTON.

MOZ001>031-035>038-043-044-053-054-040300-
...NORTHERN AND WESTERN MISSOURI...

CITY           SKY/WX    TMP DP  RH WIND       PRES   REMARKS
KANSAS CTY INT PTCLDY    72  59  63 NE5       29.94S
KANSAS C DTWN  CLEAR     74  59  59 NE7       29.92S
LEE`S SUMMIT   CLEAR     74  58  57 NE5       29.94S
ST JOSEPH      PTCLDY    72  60  66 N3        29.94S
CHILLICOTHE      N/A     69  65  86 CALM      29.95R
KIRKSVILLE     LGT RAIN  67  61  81 CALM      29.95R

$$
MOZ066>068-077>081-088>096-101>105-040300-
...SOUTHWEST MISSOURI...

CITY           SKY/WX    TMP DP  RH WIND       PRES   REMARKS
SPRINGFIELD    PTCLDY    75  67  76 E3        29.92R
JOPLIN         CLEAR     74  70  87 NE3       29.91S

$$
MOZ032>034-039>042-045>050-055>058-069>072-040300-
...CENTRAL MISSOURI...

CITY           SKY/WX    TMP DP  RH WIND       PRES   REMARKS
COLUMBIA       CLEAR     72  62  71 NE5       29.92S
ROLLA          CLEAR     71  64  78 CALM      29.91S
SEDALIA        CLEAR     71  65  81 CALM      29.94R
OSAGE BEACH    CLEAR     68  64  88 CALM      29.92S

$$
MOZ051-052-059>065-040300-
...EAST CENTRAL MISSOURI...

CITY           SKY/WX    TMP DP  RH WIND       PRES   REMARKS
ST LOUIS INTL  PTCLDY    77  65  66 NE6       29.91R
SPIRIT OF STL  CLEAR     75  65  70 CALM      29.90R
ST CHARLES     PTCLDY    73  68  84 N3        29.89R

$$
MOZ072>076-082>087-097>100-106>115-040300-
...SOUTH CENTRAL AND SOUTHEAST MISSOURI...

CITY           SKY/WX    TMP DP  RH WIND       PRES   REMARKS
CAPE GIRARDEAU PTCLDY    71  70  96 W3        29.87F
FARMINGTON     CLEAR     73  66  78 N5        29.95R
POPLAR BLUFF   MOCLDY    73  71  93 SE5       29.87R THUNDER
WEST PLAINS    PTCLDY    72  68  87 CALM      29.92S

$$


USA.gov is the U.S. government's official web portal to all federal, state and local government web resources and services.